Location: Beuerbach
(48.1459°N, 10.9174°E)
Time: 21:23:33
(UTC+00:00)

SL-16 R/B - Pass Details

Date: 12 August 2024
Orbit: 842 x 845 km, 71.0° (Epoch: 07 September)

Event Time Altitude Azimuth Distance (km) Brightness Sun altitude
Exits shadow 22:32:05 45° 91° (E) 1,144 2.7 -26.3°
Drops below altitude 10° 22:36:54 10° 38° (NE) 2,474 5.1 -26.5°
Sets 22:39:26 0° 32° (NNE) 3,414 6.0 -26.6°
